Location: Ambrosina
(19.9365°S, 43.9833°W)
Time: 07:42:05
(UTC+00:00)

Cosmos 1655 Rocket - Pass Details

Date: 11 May 2021
Orbit: 970 x 1006 km, 82.9° (Epoch: 22 June)

Event Time Altitude Azimuth Distance (km) Brightness Sun altitude
Rises 21:23:17 0° 16° (NNE) 3,652 7.0 -13.1°
Reaches altitude 10° 21:25:56 10° 23° (NNE) 2,715 6.2 -13.7°
Maximum altitude 21:31:39 39° 90° (E) 1,439 4.4 -15.0°
Drops below altitude 10° 21:37:26 10° 156° (SSE) 2,761 6.0 -16.3°
Sets 21:40:08 0° 163° (SSE) 3,721 6.8 -16.9°
